N2UGS-WX Weather Reports


Display with metric or nautical units.
time (UTC)temp
F
wind
direction
speed
MPH
gust
MPH
rain 1hr
in
rain 24hr
in
rain mn
in
humidity
%
barometer
mb
20260906202902 79 3 2.0 7.0 0.00 0.00 0.00 53 1019.3
20260906201901 78 351 11.0 11.0 0.00 0.00 0.00 56 1019.3
20260906200402 74 77 2.0 7.0 0.00 0.00 0.00 61 1019.3
20260906194901 76 6 5.0 8.0 0.00 0.00 0.00 59 1019.3
20260906193402 78 44 6.0 8.0 0.00 0.00 0.00 57 1019.3
20260906192001 77 74 4.0 9.0 0.00 0.00 0.00 57 1019.3
20260906190902 82 22 3.0 5.0 0.00 0.00 0.00 50 1019.3
20260906185502 78 71 4.0 11.0 0.00 0.00 0.00 54 1019.3
20260906184001 77 64 2.0 6.0 0.00 0.00 0.00 54 1019.3
20260906182503 77 138 3.0 7.0 0.00 0.00 0.00 56 1019.3
20260906181003 78 52 5.0 8.0 0.00 0.00 0.00 56 1019.3
20260906175502 76 26 4.0 7.0 0.00 0.00 0.00 57 1019.3
20260906174002 77 79 6.0 7.0 0.00 0.00 0.00 56 1019.6
20260906172504 77 346 7.0 11.0 0.00 0.00 0.00 56 1019.6
20260906164502 79 349 2.0 8.0 0.00 0.00 0.00 57 1019.6
20260906163402 74 121 3.0 7.0 0.00 0.00 0.00 67 1019.6
20260906161902 75 349 8.0 8.0 0.00 0.00 0.00 62 1019.6
20260906160502 71 78 3.0 9.0 0.00 0.00 0.00 69 1019.6
20260906155403 74 43 4.0 11.0 0.00 0.00 0.00 65 1019.6
20260906154002 76 20 7.0 10.0 0.00 0.00 0.00 63 1019.6
20260906152902 76 129 6.0 9.0 0.00 0.00 0.00 62 1019.6
20260906151402 75 18 6.0 9.0 0.00 0.00 0.00 61 1019.6
20260906150003 72 61 6.0 8.0 0.00 0.00 0.00 71 1019.3
20260906144902 74 355 5.0 10.0 0.00 0.00 0.00 66 1019.3
20260906143502 75 15 12.0 12.0 0.00 0.00 0.00 63 1019.3
20260906141902 72 46 3.0 6.0 0.00 0.00 0.00 71 1019.3
20260906140503 70 54 4.0 6.0 0.00 0.00 0.00 78 1019.3
20260906135002 68 43 5.0 7.0 0.00 0.00 0.00 82 1019.3
20260906133502 68 76 0.0 6.0 0.00 0.00 0.00 91 1019.3
20260906132403 66 84 2.0 4.0 0.00 0.00 0.00 97 1019.0
20260906125503 63 11 0.0 1.0 0.00 0.00 0.00 99 1019.0
20260906124006 62 236 0.0 0.0 0.00 0.00 0.00 99 1019.0
20260906122502 60 330 0.0 0.0 0.00 0.00 0.00 99 1018.6
20260906121402 59 314 0.0 0.0 0.00 0.00 0.00 99 1018.6
20260906120003 58 300 0.0 0.0 0.00 0.00 0.00 98 1018.6
20260906114503 57 284 0.0 0.0 0.00 0.00 0.00 98 1018.6
20260906113501 56 314 0.0 0.0 0.00 0.00 0.00 98 1018.6
20260906112002 56 352 0.0 0.0 0.00 0.00 0.00 98 1018.3
20260906105503 56 305 0.0 0.0 0.00 0.00 0.00 97 1017.9
20260906104402 56 17 0.0 0.0 0.00 0.00 0.00 97 1017.9
20260906102902 56 329 0.0 0.0 0.00 0.00 0.00 97 1017.6
20260906101403 57 315 0.0 0.0 0.00 0.00 0.00 97 1017.6
20260906100401 57 308 0.0 0.0 0.00 0.00 0.00 97 1017.6
20260906095001 57 329 0.0 0.0 0.00 0.00 0.00 97 1017.6
20260906093902 58 274 0.0 0.0 0.00 0.00 0.00 96 1017.6
20260906092502 58 297 0.0 0.0 0.00 0.00 0.00 96 1017.3
20260906091402 58 261 0.0 0.0 0.00 0.00 0.00 96 1016.9
20260906090003 58 309 0.0 0.0 0.00 0.00 0.00 96 1016.9
20260906084402 59 307 0.0 0.0 0.00 0.00 0.00 95 1016.9
20260906083002 59 304 0.0 0.0 0.00 0.00 0.00 95 1016.6
20260906081902 60 305 0.0 0.0 0.00 0.00 0.00 95 1016.6
20260906080502 60 314 0.0 0.0 0.00 0.00 0.00 94 1016.6
20260906074902 61 304 0.0 0.0 0.00 0.00 0.00 94 1016.6
20260906073902 61 286 0.0 0.0 0.00 0.00 0.00 94 1016.3
20260906072502 62 305 0.0 0.0 0.00 0.00 0.00 93 1016.6
20260906070902 63 323 0.0 0.0 0.00 0.00 0.00 93 1016.6
20260906065503 63 35 0.0 0.0 0.00 0.00 0.00 93 1016.6
20260906064003 63 279 0.0 0.0 0.00 0.00 0.00 93 1016.6
20260906062902 63 295 0.0 0.0 0.00 0.00 0.00 93 1016.6
20260906061402 63 272 0.0 0.0 0.00 0.00 0.00 92 1016.6
20260906060002 63 331 0.0 0.0 0.00 0.00 0.00 92 1016.6
20260906054502 63 296 0.0 0.0 0.00 0.00 0.00 92 1016.6
20260906053003 63 16 0.0 0.0 0.00 0.00 0.00 91 1016.6
20260906051502 63 296 0.0 0.0 0.00 0.00 0.00 91 1016.6
20260906050002 63 266 0.0 0.0 0.00 0.00 0.00 90 1016.3
20260906044502 63 51 0.0 0.0 0.00 0.00 0.00 90 1016.6
20260906042902 64 314 0.0 0.0 0.00 0.00 0.00 90 1016.6
20260906041502 64 296 0.0 0.0 0.00 0.00 0.00 89 1016.3
20260906040402 64 258 0.0 0.0 0.00 0.00 0.00 89 1016.3
20260906035501 64 325 0.0 0.0 0.00 0.00 0.00 89 1016.3
20260906033902 64 321 0.0 0.0 0.00 0.00 0.00 89 1016.3
20260906031002 64 212 0.0 0.0 0.00 0.00 0.00 88 1015.9
20260906025502 64 308 0.0 0.0 0.00 0.00 0.00 87 1015.9
20260906024003 64 311 0.0 0.0 0.00 0.00 0.00 86 1016.3
20260906021502 64 337 0.0 0.0 0.00 0.00 0.00 84 1015.9
20260906020001 64 20 0.0 0.0 0.00 0.00 0.00 83 1015.9
20260906014502 64 314 0.0 0.0 0.00 0.00 0.00 82 1015.9
20260906013002 65 267 0.0 0.0 0.00 0.00 0.00 80 1015.9
20260906011501 65 336 0.0 0.0 0.00 0.00 0.00 78 1015.6
20260906010002 66 301 0.0 0.0 0.00 0.00 0.00 77 1015.6
20260906004502 66 323 0.0 0.0 0.00 0.00 0.00 75 1015.6
20260906003002 67 327 0.0 0.0 0.00 0.00 0.00 73 1015.6
20260906000003 69 295 0.0 0.0 0.00 0.00 0.00 67 1015.2
20260905234502 70 282 0.0 0.0 0.00 0.00 0.00 65 1015.6
20260905233001 71 243 0.0 1.0 0.00 0.00 0.00 63 1015.6
20260905231503 72 20 0.0 4.0 0.00 0.00 0.00 59 1015.2
20260905230003 73 63 2.0 5.0 0.00 0.00 0.00 56 1015.2
20260905224901 75 5 2.0 4.0 0.00 0.00 0.00 55 1015.2
20260905223402 79 76 2.0 4.0 0.00 0.00 0.00 48 1015.2
20260905221902 80 6 1.0 2.0 0.00 0.00 0.00 49 1015.2
20260905220901 79 354 3.0 6.0 0.00 0.00 0.00 49 1015.2
20260905215402 80 69 1.0 6.0 0.00 0.00 0.00 49 1015.2
20260905213902 77 342 2.0 4.0 0.00 0.00 0.00 53 1015.2
20260905212402 78 30 9.0 9.0 0.00 0.00 0.00 49 1014.9
20260905210901 78 29 3.0 6.0 0.00 0.00 0.00 52 1015.2
20260905205402 77 26 2.0 9.0 0.00 0.00 0.00 54 1014.9
20260905203902 78 6 3.0 5.0 0.00 0.00 0.00 52 1014.9